Vorticity
11 11 12 12 8 7 12 10 5 9 11 11 13 11 7 7 13 16 7 5 9 3 6 11 8 11 14 17 23 19 17 15 8 9 9 5 3 1 4 6 7 10 6 9 20 21 15 9 4 3 5 8 7 12 18 4 -7 3 8 4 4 5 7 11 14 10 4 5 5 6 7 6 8 9 8 9 8 7 7 7 9 10 9 9 10 9
11 10 11 12 9 8 9 7 7 11 10 12 13 8 7 9 13 15 2 -0 12 9 7 12 13 15 13 7 11 13 9 7 8 8 7 5 4 3 6 5 7 12 5 0 11 17 13 8 7 6 6 11 10 6 8 6 5 8 5 1 3 4 6 11 13 8 5 3 3 6 6 7 9 7 8 10 9 9 8 8 9 10 11 10 8 8
10 7 9 11 11 13 13 11 12 14 12 16 17 9 8 9 9 12 5 0 9 12 9 10 14 17 12 -3 -10 -2 4 9 15 13 6 2 2 4 3 0 10 18 9 3 5 7 9 9 8 10 7 6 7 5 3 3 4 4 2 3 4 5 9 11 6 2 4 5 4 5 6 7 7 8 9 9 9 9 8 9 9 10 12 11 9 8
8 7 8 8 10 12 13 11 12 16 16 19 18 10 7 6 6 7 5 6 8 9 7 1 3 9 9 -1 -5 1 6 8 9 5 1 -1 2 4 -1 -1 9 12 8 6 5 4 4 6 7 9 9 6 4 3 2 2 5 6 4 4 4 7 11 11 7 4 5 6 4 5 7 8 8 9 9 8 9 9 8 9 9 10 12 12 12 10
6 7 7 6 8 8 7 6 7 8 11 20 19 9 5 4 5 4 2 7 8 8 8 -1 -4 -0 -0 -1 2 7 9 7 4 0 -1 -1 3 3 -2 1 4 4 6 3 5 14 14 11 9 7 9 10 10 8 7 7 7 7 6 5 7 9 8 8 8 6 5 6 5 3 4 8 11 11 10 10 10 9 9 9 8 9 9 11 13 12
7 7 8 7 7 7 8 7 5 3 4 16 19 7 4 3 4 8 7 6 7 9 7 -2 -3 0 0 2 4 7 9 8 4 0 -1 -0 3 2 -1 1 1 2 4 -1 9 24 25 21 14 7 9 12 14 14 13 12 11 10 9 8 8 7 6 7 8 8 8 10 9 4 2 5 10 11 10 10 11 11 10 8 8 9 9 10 11 12
6 6 8 8 9 8 9 9 7 6 2 8 17 11 3 0 -1 7 12 8 4 9 7 -4 -5 1 1 2 3 3 3 5 6 2 -0 0 2 4 4 0 -1 3 2 1 14 18 13 20 18 9 11 12 12 14 13 12 12 10 10 9 8 7 7 7 8 10 9 8 7 4 2 2 4 8 10 9 10 11 11 9 9 8 9 10 10 11
4 6 8 9 11 8 8 8 7 8 4 8 22 19 5 3 3 4 12 11 -1 1 6 -4 -8 2 5 1 2 4 1 -0 2 -1 -2 0 1 3 3 -1 -1 3 2 2 11 6 -5 11 21 11 8 10 9 11 10 9 8 7 7 7 7 6 5 4 5 6 6 5 5 7 10 6 3 5 7 7 8 9 11 12 11 10 9 9 11 12
6 7 8 7 8 7 7 7 6 8 10 13 22 21 9 5 6 4 7 10 -1 -6 -1 -6 -10 0 8 2 -1 2 3 1 -1 -4 -3 2 5 3 -1 0 -0 -0 -0 -3 2 3 -3 11 25 17 9 10 10 9 9 9 8 8 9 9 7 5 4 6 6 5 4 4 5 12 19 14 8 7 6 6 7 7 10 11 11 12 8 5 10 14
8 8 5 5 7 7 7 6 7 10 12 12 15 20 17 7 2 3 3 5 3 -2 -2 -2 -4 -1 5 5 0 1 4 2 -3 -5 -1 4 8 4 -4 -3 -2 -1 2 -1 2 10 11 17 23 18 14 11 9 8 8 8 8 7 8 6 5 7 8 8 7 5 3 4 6 14 20 12 1 -3 -6 -3 3 5 9 12 11 12 11 6 6 12
8 7 5 7 8 8 8 7 10 12 10 10 14 19 22 15 3 -1 0 0 -0 -0 0 1 -1 -1 -0 -1 -1 3 8 11 10 8 7 7 8 6 -1 -4 -2 2 5 4 10 15 12 12 12 9 9 5 2 4 4 5 6 5 4 4 5 8 9 8 6 4 3 4 4 8 14 8 -3 -7 -6 3 12 13 11 13 12 10 11 8 5 9
6 6 7 8 9 12 13 9 9 10 7 6 12 17 22 23 13 1 -2 -1 -3 -1 2 1 1 2 0 -0 2 2 5 14 18 16 15 12 9 7 2 2 5 6 5 5 11 11 5 8 11 8 7 6 4 5 6 5 5 4 4 6 6 4 4 5 2 1 6 9 7 4 5 4 3 8 13 13 12 10 10 13 14 12 11 11 6 7
5 5 7 9 10 11 10 7 4 6 6 8 13 15 16 21 22 13 4 1 -1 -0 2 1 0 0 0 4 8 4 4 8 9 10 12 11 12 11 10 12 11 8 8 8 11 11 6 8 12 8 7 8 6 6 7 4 2 6 8 9 12 11 8 7 4 4 8 7 4 6 5 1 1 6 8 6 0 2 9 13 14 14 12 11 7 6
6 5 6 11 12 9 7 5 4 4 7 13 15 14 13 15 19 20 14 6 3 3 4 4 1 -0 1 2 5 7 9 9 10 13 11 8 8 8 8 9 6 7 11 10 9 11 10 9 7 3 4 5 4 8 8 3 3 9 8 5 12 16 10 8 9 8 4 -2 -1 11 11 4 4 6 5 5 5 8 11 9 11 14 14 12 8 7
3 5 7 12 11 6 6 7 6 6 7 13 15 11 12 13 14 19 20 15 9 5 3 3 5 8 12 12 10 13 14 11 13 16 17 14 9 5 4 3 4 7 7 4 7 9 7 9 5 0 2 3 6 9 6 3 5 8 11 12 17 19 14 13 14 12 6 -3 -1 12 12 2 4 10 11 9 10 14 13 6 5 10 14 13 9 7
2 6 7 9 9 5 7 9 8 8 5 7 12 9 7 7 8 13 18 20 18 16 12 9 9 13 17 18 16 18 19 15 11 11 13 13 11 11 9 6 6 6 1 1 10 13 11 10 5 1 4 3 4 5 3 4 3 4 11 10 3 7 14 18 20 25 24 8 -4 2 6 4 7 14 16 10 10 17 14 5 2 8 14 13 9 8
3 8 8 4 2 3 6 7 8 10 9 7 9 11 10 7 6 7 13 17 15 15 18 15 12 12 15 13 10 13 16 15 12 11 10 8 8 10 9 12 18 18 11 6 9 14 11 5 3 4 5 3 3 2 2 6 4 3 10 6 3 14 22 15 8 16 25 20 8 3 6 13 16 18 15 7 13 21 12 3 3 8 14 13 8 8
3 6 10 8 1 -4 -0 5 8 8 10 11 11 14 16 12 9 6 6 8 9 10 12 14 14 14 14 14 11 10 10 12 13 14 14 12 10 8 9 15 18 14 12 11 18 23 10 -1 3 6 4 3 3 4 6 10 8 6 10 10 10 17 18 11 6 10 17 23 24 15 16 27 24 18 15 7 10 14 7 4 6 6 10 11 9 8
6 4 8 16 10 1 5 10 7 6 11 14 11 12 15 13 11 12 9 6 10 15 16 16 18 15 12 14 16 15 11 11 12 10 13 16 17 19 18 17 14 10 8 10 18 20 5 -2 6 9 9 8 7 8 10 12 9 7 9 7 -0 -2 2 9 15 14 9 16 22 9 5 18 15 8 12 10 8 7 2 2 3 5 10 10 7 6
8 6 8 16 15 12 18 17 9 9 13 14 10 6 8 9 6 8 13 13 12 13 11 11 15 15 12 12 15 15 13 12 12 10 10 12 15 17 14 10 10 10 7 4 4 4 2 5 9 13 17 14 9 10 11 9 7 5 6 7 4 3 6 9 10 9 4 8 14 5 2 17 18 12 14 14 12 9 6 7 7 7 11 12 9 7
7 9 6 7 12 13 14 13 14 14 8 7 10 6 3 5 4 3 6 7 5 3 2 4 9 12 13 13 12 13 12 9 8 6 5 4 7 12 10 7 7 7 8 7 5 5 10 15 15 15 17 13 9 8 5 2 3 3 3 5 7 7 8 10 8 7 6 5 7 7 9 12 9 5 5 7 9 8 5 12 20 19 12 4 1 7
6 12 8 3 12 18 10 5 11 10 1 2 10 9 4 1 0 2 3 0 -2 -3 -2 1 3 5 10 12 11 12 13 12 11 10 9 8 11 15 13 13 12 8 6 7 8 10 13 17 18 15 12 10 8 6 4 3 4 5 5 6 9 10 9 9 7 5 5 6 7 6 5 4 3 3 5 8 11 8 4 9 17 16 4 -7 -5 5
4 11 12 3 6 17 15 6 5 3 -1 1 5 6 9 5 0 1 1 0 2 2 1 2 1 2 5 7 8 7 8 10 11 12 12 10 10 10 8 10 8 2 5 11 13 10 8 9 9 7 9 8 3 2 6 8 5 5 7 7 8 8 5 3 3 4 5 7 7 5 4 6 7 8 10 11 11 7 6 10 9 5 -1 -3 2 8
4 8 8 2 1 8 10 4 5 8 6 3 3 5 8 8 8 9 5 4 7 6 5 6 6 6 7 8 10 10 9 10 9 8 7 5 5 4 5 7 6 6 15 22 17 8 9 9 2 -1 4 3 -5 -7 -1 5 4 3 5 6 5 5 6 6 5 4 3 5 8 7 6 6 9 16 17 13 12 11 9 10 8 7 11 14 13 12
4 5 3 2 2 6 9 1 -1 8 12 7 2 2 3 2 4 10 11 11 12 9 6 5 4 6 8 7 6 8 11 13 12 12 10 6 6 6 4 5 6 8 10 13 11 7 8 7 1 -0 5 7 5 0 -2 1 1 0 2 5 7 6 6 6 4 1 1 3 6 6 6 5 8 19 23 11 4 12 19 20 14 7 6 12 15 12
6 2 3 4 1 4 13 10 -0 0 7 8 3 -0 2 1 1 5 8 9 9 9 8 6 2 3 5 2 -1 2 6 6 5 5 4 1 0 1 1 3 5 5 3 3 6 6 5 6 7 10 14 19 21 15 8 5 5 6 7 8 8 5 4 5 4 3 3 4 5 4 4 4 1 13 40 45 24 14 13 9 3 -2 -3 6 15 14
11 4 4 6 5 4 7 9 6 0 0 6 8 5 4 2 0 5 8 7 6 6 6 4 2 3 4 2 2 2 2 0 -1 -2 -2 -1 1 4 6 7 7 8 8 7 7 7 8 9 9 9 10 10 9 6 5 6 4 3 3 3 3 3 5 5 3 3 4 5 7 4 2 8 8 10 25 29 10 -6 -12 -16 -11 1 8 14 15 10
17 14 7 6 9 7 2 4 9 8 6 7 5 2 4 3 2 6 8 7 4 1 -2 -3 0 5 6 6 5 3 2 2 5 7 8 9 10 11 10 9 10 10 7 4 3 4 7 7 6 5 4 2 0 -0 -1 1 2 2 2 2 2 -0 -1 -1 -2 -2 1 4 7 6 3 6 11 6 -4 -12 -16 -15 -10 -4 4 8 8 9 6 2
21 25 18 12 12 9 7 8 5 4 9 10 2 -4 -1 4 6 6 6 5 3 -1 -3 -1 3 6 6 5 5 5 4 3 4 7 7 4 2 1 -1 -1 2 3 -1 -4 -1 2 4 4 2 -0 -1 -0 1 0 -0 3 6 6 5 3 1 0 2 5 4 1 2 6 7 9 11 7 6 8 4 -1 -1 2 9 15 11 3 5 12 11 7
13 22 22 21 18 11 10 9 3 3 11 14 11 6 2 4 6 5 4 4 5 5 6 6 6 7 7 8 7 5 4 4 4 4 3 1 0 1 1 1 1 0 -2 -3 0 3 3 3 2 0 2 4 5 6 8 10 9 4 2 2 3 6 8 8 6 2 3 7 7 6 6 0 -1 6 9 5 4 9 18 16 5 2 11 14 7 2
5 9 13 17 18 16 15 13 8 9 11 11 14 15 13 10 8 6 6 6 8 10 10 10 9 7 6 5 4 4 3 4 3 2 2 3 4 4 3 3 3 2 1 0 1 1 1 2 2 2 4 5 4 6 6 7 8 3 -0 2 6 8 7 2 1 4 7 9 8 3 -2 -6 -2 7 8 4 2 6 8 1 -4 4 12 9 5 5
13 7 2 -1 1 5 7 5 1 -0 2 3 4 6 9 9 5 1 2 4 7 9 10 10 9 7 6 6 7 7 6 4 1 1 3 3 3 3 2 2 2 1 1 0 0 1 1 2 2 2 4 6 7 9 7 7 7 3 0 6 10 8 5 3 4 7 9 8 6 4 3 5 9 10 6 2 2 5 6 3 3 7 7 6 7 6
14 8 4 1 1 3 3 2 0 -0 0 2 2 3 8 11 10 7 4 4 5 5 6 7 5 5 6 6 5 4 2 -0 -2 -0 2 3 2 3 3 3 3 3 3 2 2 3 3 3 4 5 8 11 12 12 10 10 11 9 7 8 7 5 5 7 8 7 5 5 9 11 12 12 10 6 3 2 2 6 10 11 10 8 6 6 4 0
2 1 4 5 5 7 7 6 7 7 4 3 4 6 7 8 10 11 10 8 6 4 4 5 4 4 4 1 -1 0 1 1 2 4 5 6 7 8 8 8 8 8 8 8 6 5 6 7 10 12 12 11 12 14 17 17 17 18 16 11 7 7 7 6 7 9 8 9 12 11 8 6 4 3 4 6 9 11 13 13 10 8 6 4 2 2
0 3 5 4 3 4 5 4 5 6 7 8 7 5 4 4 6 7 8 8 7 6 6 6 5 5 5 4 4 5 6 7 8 8 8 8 9 10 9 9 10 10 11 12 12 11 12 13 12 11 11 10 10 15 20 22 25 31 31 23 17 17 18 19 19 18 16 12 9 6 5 5 6 7 8 9 11 11 11 9 6 3 4 5 5 8
8 9 8 7 6 6 6 6 7 8 8 7 7 7 8 9 10 12 14 14 14 13 12 12 11 9 8 8 8 8 10 11 12 12 11 11 11 11 11 10 11 12 12 13 14 11 9 7 5 5 7 8 5 1 1 1 3 4 0 -1 5 12 15 15 13 11 9 8 7 8 10 10 8 8 7 5 4 3 2 1 -1 -1 2 4 7 9
10 8 9 9 9 9 9 9 9 9 8 8 10 13 13 13 13 14 16 16 16 16 16 15 16 15 13 12 10 10 10 8 7 6 5 6 7 8 9 9 9 9 7 5 4 4 5 7 9 10 11 12 11 9 7 8 7 2 -4 -3 7 12 9 4 2 2 2 3 3 5 6 6 6 7 6 3 1 -0 -1 -1 0 3 5 6 7 7
9 7 7 6 6 7 7 8 7 7 8 8 8 8 7 6 7 8 8 8 8 10 12 13 13 14 14 14 13 12 10 8 7 5 4 5 5 4 4 4 3 2 0 -2 -3 -1 2 3 4 5 5 5 6 7 5 3 2 3 6 9 9 8 7 6 7 8 9 11 11 9 8 8 8 9 10 11 10 8 7 7 9 10 11 10 8 4
10 10 8 6 6 6 6 7 7 7 7 7 6 6 7 8 10 11 9 6 6 7 8 10 11 12 12 12 12 12 11 11 10 11 10 9 8 8 6 5 4 3 3 4 5 6 8 8 8 9 8 6 7 8 7 5 2 -1 -2 0 3 7 10 10 8 7 10 11 11 10 13 14 11 9 10 12 15 16 15 14 14 13 12 11 9 7
7 9 8 6 5 6 6 6 5 4 4 5 7 8 8 8 8 6 4 5 8 11 11 10 10 10 11 13 15 17 21 22 20 19 18 17 15 14 12 10 10 11 10 11 13 13 14 15 14 12 10 8 9 10 11 12 13 9 2 1 4 7 9 10 10 11 12 11 8 5 4 3 3 5 10 14 17 18 14 13 13 11 9 8 8 7
11 11 10 8 7 7 7 7 7 6 7 9 10 11 12 14 15 13 12 13 14 14 14 13 12 11 12 12 13 14 14 15 14 13 13 13 14 14 14 12 13 14 15 15 14 14 13 12 11 10 11 10 10 11 10 10 11 11 10 9 8 6 5 1 0 4 8 12 15 15 11 8 7 8 10 13 15 13 9 9 11 9 5 4 2 1
16 16 15 15 14 14 14 13 12 12 12 12 14 18 20 20 20 20 20 21 20 16 14 14 13 15 15 15 13 11 5 3 5 5 6 8 9 11 14 15 13 12 12 11 10 10 11 11 10 10 10 10 10 10 11 11 10 10 10 11 11 11 9 2 -5 -8 -10 -10 -7 -3 -0 3 4 2 -2 -2 -0 -1 -5 -5 -1 3 4 4 0 -2
14 14 14 15 15 15 15 15 13 14 16 15 15 18 18 14 13 15 15 14 14 12 11 9 7 8 10 9 7 6 6 6 9 11 11 12 11 9 9 11 11 9 8 8 7 8 8 9 10 11 11 11 11 11 11 11 11 10 9 9 8 8 9 8 5 1 -2 -6 -9 -11 -10 -5 -2 -2 -5 -8 -9 -8 -9 -11 -10 -7 -5 -4 -4 -4
12 11 11 12 13 13 15 17 16 16 17 16 14 13 11 9 10 13 13 12 11 10 9 7 5 5 6 5 3 2 4 5 6 6 7 7 7 7 7 9 11 11 11 11 10 10 9 9 9 9 8 7 7 7 7 6 6 5 6 6 7 7 7 8 8 8 8 8 7 6 8 9 9 7 6 3 -0 -2 -3 -3 -4 -5 -6 -6 -4 -1
12 12 10 10 10 10 12 13 13 11 11 12 14 16 15 13 9 5 3 1 -1 -3 -3 -3 -0 2 3 3 4 5 5 5 4 4 4 2 2 3 3 2 3 4 5 5 5 5 6 6 7 7 8 8 9 8 8 6 5 5 5 6 6 7 7 8 10 10 8 8 8 9 10 11 13 14 16 16 15 14 14 14 13 12 11 10 10 10
15 16 16 14 12 11 9 7 5 4 2 1 1 3 6 8 9 8 7 6 4 3 4 5 6 4 2 2 5 6 7 8 8 8 9 9 8 8 8 6 5 5 7 8 9 8 7 7 6 5 3 4 5 6 8 9 9 9 10 10 11 11 10 10 10 11 12 13 12 11 10 10 11 12 13 13 14 14 14 15 16 16 16 16 16 16
18 18 19 19 18 18 17 15 14 12 11 7 2 -2 -5 -7 -7 -7 -6 -5 -3 -1 -0 -0 -1 -1 1 6 10 11 12 14 14 14 14 13 13 13 14 15 15 14 15 16 16 16 15 14 13 12 10 7 6 6 6 6 7 8 9 10 11 12 12 11 10 9 9 9 9 10 10 9 8 9 10 11 12 12 12 12 11 11 11 12 13 13
16 16 16 16 17 17 18 19 20 20 20 20 18 16 15 12 10 8 6 6 6 5 5 6 8 11 15 17 17 17 17 17 17 16 15 15 15 14 13 14 14 15 15 15 16 17 18 18 19 19 20 19 18 17 16 15 14 15 15 16 16 15 15 15 15 14 13 12 12 12 13 12 12 11 9 8 9 10 11 11 10 10 10 11 11 11
18 19 19 18 18 19 18 19 20 21 21 22 22 22 23 22 22 21 20 19 19 19 19 19 19 19 18 17 16 16 16 15 15 15 14 14 14 13 13 13 13 13 13 14 14 15 15 16 17 18 18 19 20 21 21 20 18 17 17 17 17 17 16 15 15 15 15 15 15 15 15 17 17 17 16 16 15 15 15 14 14 13 14 14 14 14
15 15 15 15 15 14 14 14 15 14 15 15 15 15 15 15 15 15 14 14 14 14 14 14 13 13 13 12 12 12 12 11 12 12 12 12 11 11 11 11 11 12 12 12 13 14 14 14 14 15 15 16 16 16 17 17 17 17 16 15 15 15 16 16 16 17 17 17 17 17 17 16 16 17 17 18 17 17 17 18 18 17 17 17 16 15
11 11 11 11 10 9 9 9 8 8 9 9 9 8 9 10 10 11 11 12 12 12 12 12 12 12 12 11 10 10 10 10 11 10 10 10 11 12 12 13 13 14 14 14 15 14 14 14 14 14 14 14 15 16 16 15 14 13 13 13 13 13 12 13 13 14 14 14 15 15 15 15 16 16 16 17 17 17 16 15 15 16 16 16 14 13
Height
5728 5729 5730 5731 5731 5732 5733 5733 5733 5734 5737 5738 5739 5740 5741 5742 5743 5744 5745 5745 5746 5748 5749 5749 5750 5752 5753 5754 5754 5755 5756 5758 5759 5759 5760 5760 5762 5762 5763 5764 5764 5764 5764 5764 5764 5765 5767 5768 5768 5768 5768 5768 5768 5768 5768 5769 5770 5770 5771 5772 5773 5774 5774 5774 5773 5773 5772 5772 5771 5771 5771 5772 5772 5771 5771 5771 5771 5771 5771 5772 5772 5772 5772 5772 5772 5772
5727 5727 5728 5728 5729 5730 5731 5731 5731 5733 5735 5737 5737 5738 5739 5740 5741 5742 5743 5744 5745 5746 5747 5747 5748 5750 5752 5752 5753 5753 5755 5757 5757 5758 5758 5758 5760 5761 5761 5762 5762 5763 5763 5763 5763 5763 5764 5766 5767 5767 5767 5767 5768 5768 5768 5769 5769 5770 5770 5771 5772 5772 5773 5772 5772 5771 5771 5770 5770 5769 5770 5770 5770 5770 5770 5770 5770 5770 5771 5771 5771 5771 5771 5771 5771 5770
5724 5725 5725 5726 5727 5729 5729 5730 5731 5732 5733 5735 5736 5736 5737 5738 5739 5740 5741 5742 5743 5744 5745 5746 5746 5747 5748 5749 5750 5752 5753 5755 5755 5756 5756 5757 5758 5759 5759 5760 5761 5762 5762 5762 5761 5761 5762 5763 5764 5765 5765 5766 5766 5767 5768 5768 5769 5769 5769 5769 5770 5771 5771 5771 5770 5770 5770 5769 5769 5769 5769 5769 5769 5769 5769 5769 5769 5769 5769 5769 5770 5770 5770 5769 5769 5769
5722 5723 5724 5725 5726 5727 5728 5728 5729 5731 5732 5734 5734 5735 5735 5736 5737 5738 5739 5740 5741 5742 5743 5744 5744 5744 5745 5746 5747 5749 5750 5752 5753 5754 5754 5755 5756 5757 5757 5758 5759 5760 5761 5761 5760 5760 5760 5760 5761 5762 5763 5763 5764 5765 5765 5766 5767 5767 5767 5767 5768 5768 5769 5769 5769 5769 5769 5769 5768 5768 5767 5767 5768 5768 5768 5768 5768 5768 5768 5767 5767 5768 5768 5768 5767 5767
5720 5721 5722 5723 5724 5725 5726 5726 5728 5729 5730 5732 5733 5734 5734 5735 5735 5736 5737 5738 5739 5740 5741 5742 5743 5743 5744 5744 5745 5746 5747 5749 5751 5751 5752 5754 5755 5755 5756 5757 5757 5758 5759 5759 5759 5758 5758 5758 5758 5759 5760 5761 5761 5762 5763 5763 5764 5764 5765 5765 5765 5766 5766 5766 5767 5767 5767 5768 5767 5767 5766 5766 5766 5767 5767 5767 5767 5767 5766 5766 5766 5766 5766 5766 5766 5766
5718 5719 5720 5721 5722 5723 5724 5725 5725 5727 5729 5731 5732 5733 5733 5733 5733 5734 5735 5736 5738 5739 5740 5741 5742 5743 5743 5743 5743 5744 5745 5747 5749 5750 5751 5752 5753 5754 5755 5756 5756 5756 5757 5757 5757 5757 5756 5757 5757 5757 5758 5759 5759 5759 5760 5760 5761 5761 5762 5762 5763 5763 5763 5764 5765 5765 5765 5766 5766 5766 5765 5765 5765 5765 5765 5765 5766 5765 5765 5764 5764 5764 5764 5764 5763 5763
5717 5717 5718 5719 5721 5721 5722 5722 5723 5725 5726 5729 5731 5731 5731 5731 5732 5733 5733 5735 5736 5737 5738 5739 5741 5742 5742 5742 5742 5743 5744 5745 5747 5748 5749 5750 5751 5752 5753 5754 5755 5755 5755 5755 5756 5756 5756 5756 5757 5757 5757 5757 5758 5758 5758 5758 5758 5759 5759 5760 5761 5761 5761 5761 5762 5762 5763 5763 5764 5763 5763 5763 5763 5763 5763 5764 5764 5764 5763 5763 5763 5762 5762 5761 5761 5761
5715 5715 5716 5718 5719 5720 5720 5721 5722 5722 5724 5726 5728 5729 5728 5729 5730 5731 5731 5733 5734 5735 5736 5738 5739 5740 5741 5742 5741 5741 5743 5744 5745 5746 5747 5748 5749 5750 5752 5752 5753 5754 5754 5754 5756 5757 5756 5756 5756 5756 5756 5756 5756 5757 5757 5757 5757 5757 5758 5758 5759 5759 5758 5758 5759 5759 5759 5760 5760 5760 5761 5761 5761 5761 5761 5761 5762 5762 5762 5762 5761 5761 5760 5759 5759 5759
5713 5713 5715 5716 5717 5717 5718 5719 5720 5720 5723 5724 5725 5726 5726 5726 5728 5729 5730 5731 5732 5733 5735 5736 5737 5739 5740 5741 5740 5741 5742 5743 5743 5744 5745 5747 5748 5749 5750 5751 5751 5752 5752 5753 5755 5756 5756 5756 5756 5755 5755 5755 5755 5756 5756 5756 5756 5756 5756 5757 5757 5756 5756 5755 5755 5755 5755 5756 5756 5757 5757 5758 5759 5759 5759 5759 5759 5759 5760 5760 5760 5759 5758 5758 5757 5757
5711 5711 5712 5713 5714 5715 5716 5717 5718 5719 5721 5721 5722 5723 5724 5724 5726 5726 5727 5729 5729 5731 5732 5733 5735 5737 5739 5740 5740 5740 5740 5741 5741 5742 5744 5745 5746 5747 5748 5749 5749 5749 5750 5751 5753 5754 5754 5755 5755 5754 5754 5754 5754 5754 5755 5755 5755 5755 5755 5755 5755 5754 5753 5752 5752 5752 5752 5753 5754 5754 5755 5756 5756 5756 5757 5757 5757 5757 5757 5758 5757 5757 5756 5756 5755 5755
5709 5709 5709 5711 5713 5714 5715 5715 5715 5716 5718 5718 5719 5721 5722 5722 5723 5724 5725 5726 5727 5728 5730 5730 5732 5734 5736 5738 5739 5739 5738 5739 5739 5740 5741 5743 5744 5745 5746 5747 5747 5748 5748 5749 5751 5752 5752 5753 5753 5753 5753 5753 5753 5753 5753 5753 5753 5753 5752 5752 5751 5751 5750 5750 5750 5750 5751 5752 5753 5754 5754 5755 5755 5755 5755 5755 5755 5755 5755 5755 5755 5754 5754 5753 5753 5753
5706 5707 5708 5709 5711 5712 5712 5712 5712 5713 5715 5716 5717 5718 5720 5721 5721 5722 5723 5723 5724 5726 5727 5728 5729 5730 5732 5734 5737 5737 5737 5737 5737 5738 5739 5741 5742 5743 5744 5745 5745 5745 5745 5746 5748 5748 5749 5751 5751 5751 5751 5751 5751 5752 5752 5751 5750 5749 5747 5746 5747 5748 5749 5749 5749 5750 5751 5752 5753 5753 5754 5755 5755 5755 5754 5753 5754 5753 5753 5753 5753 5752 5751 5751 5751 5751
5703 5704 5706 5707 5708 5709 5710 5710 5710 5711 5712 5714 5715 5716 5718 5719 5719 5720 5721 5721 5722 5723 5724 5725 5726 5727 5728 5729 5732 5735 5735 5735 5735 5736 5737 5738 5739 5740 5741 5742 5743 5742 5743 5744 5744 5745 5746 5748 5748 5749 5749 5750 5750 5751 5750 5748 5747 5746 5745 5745 5747 5749 5750 5750 5749 5749 5751 5751 5751 5751 5751 5752 5753 5753 5753 5752 5752 5751 5751 5751 5750 5750 5749 5749 5749 5749
5701 5702 5703 5704 5705 5707 5707 5708 5709 5710 5710 5712 5713 5714 5715 5716 5717 5718 5718 5719 5720 5721 5722 5723 5723 5724 5724 5725 5728 5730 5732 5732 5732 5733 5734 5735 5737 5738 5738 5739 5739 5740 5741 5741 5741 5742 5743 5745 5746 5747 5747 5748 5748 5748 5747 5746 5745 5745 5746 5745 5746 5746 5747 5747 5746 5746 5746 5747 5747 5747 5748 5749 5750 5750 5750 5750 5749 5749 5749 5748 5748 5748 5747 5747 5747 5747
5699 5700 5701 5702 5704 5704 5705 5706 5707 5708 5708 5709 5710 5711 5712 5713 5715 5716 5717 5717 5718 5719 5720 5720 5721 5721 5721 5722 5723 5726 5728 5728 5729 5730 5731 5732 5733 5734 5735 5736 5736 5737 5738 5738 5738 5739 5740 5742 5743 5744 5744 5745 5745 5745 5744 5743 5744 5744 5744 5744 5742 5742 5743 5742 5741 5741 5742 5743 5744 5745 5745 5746 5746 5746 5747 5747 5747 5747 5746 5746 5745 5745 5745 5745 5745 5745
5697 5698 5699 5700 5702 5702 5704 5705 5705 5705 5706 5707 5707 5708 5710 5711 5712 5713 5714 5715 5715 5716 5717 5717 5717 5717 5718 5719 5719 5722 5724 5725 5726 5727 5728 5729 5730 5731 5732 5733 5733 5734 5734 5735 5735 5736 5737 5738 5740 5741 5741 5741 5741 5741 5741 5742 5742 5742 5743 5743 5741 5739 5739 5739 5740 5740 5740 5740 5741 5742 5742 5743 5743 5743 5743 5744 5744 5744 5744 5743 5743 5742 5742 5742 5742 5742
5695 5696 5697 5698 5699 5700 5701 5702 5702 5703 5704 5704 5705 5706 5707 5708 5709 5710 5711 5711 5712 5713 5714 5715 5715 5714 5715 5716 5717 5719 5721 5722 5723 5724 5725 5726 5727 5727 5729 5729 5729 5729 5729 5731 5731 5732 5733 5734 5736 5737 5737 5738 5737 5737 5738 5740 5740 5739 5740 5741 5739 5737 5736 5736 5738 5738 5737 5737 5738 5739 5739 5740 5740 5740 5740 5740 5741 5741 5741 5740 5740 5740 5740 5740 5740 5740
5692 5694 5695 5696 5697 5698 5699 5700 5699 5700 5701 5701 5702 5704 5705 5705 5706 5707 5708 5709 5709 5711 5712 5712 5712 5711 5711 5713 5715 5717 5718 5720 5721 5721 5722 5723 5724 5724 5725 5727 5728 5727 5726 5727 5728 5729 5729 5730 5732 5733 5734 5734 5733 5733 5735 5736 5736 5735 5736 5738 5737 5735 5733 5734 5735 5735 5734 5734 5735 5737 5737 5736 5736 5737 5737 5738 5739 5739 5738 5738 5738 5738 5738 5738 5738 5738
5690 5692 5693 5694 5694 5695 5697 5698 5697 5698 5698 5699 5700 5701 5702 5703 5704 5705 5706 5707 5707 5709 5709 5709 5709 5709 5708 5710 5712 5714 5715 5717 5718 5719 5720 5720 5721 5721 5722 5724 5725 5725 5724 5725 5725 5727 5727 5728 5729 5730 5730 5731 5731 5731 5731 5732 5732 5731 5733 5734 5734 5733 5732 5733 5733 5732 5731 5731 5733 5734 5734 5734 5734 5734 5735 5735 5736 5737 5736 5736 5736 5736 5736 5736 5735 5735
5686 5689 5691 5691 5692 5693 5694 5695 5695 5696 5697 5697 5698 5698 5699 5700 5701 5702 5703 5704 5705 5706 5707 5707 5707 5707 5707 5708 5709 5711 5713 5714 5716 5716 5717 5718 5718 5719 5719 5720 5721 5721 5721 5722 5723 5724 5725 5726 5727 5727 5727 5728 5728 5728 5728 5728 5728 5729 5729 5730 5731 5731 5731 5731 5731 5731 5730 5730 5731 5731 5731 5731 5731 5732 5732 5733 5734 5734 5734 5734 5734 5734 5734 5734 5734 5734
5683 5686 5688 5689 5689 5691 5692 5692 5692 5693 5694 5695 5696 5696 5696 5698 5699 5699 5700 5701 5702 5703 5704 5705 5705 5706 5707 5708 5708 5709 5711 5712 5713 5714 5715 5715 5716 5716 5716 5717 5718 5718 5719 5719 5720 5721 5722 5723 5724 5725 5725 5726 5726 5726 5726 5726 5725 5726 5727 5728 5728 5729 5729 5729 5730 5729 5729 5729 5730 5730 5730 5730 5729 5730 5730 5730 5731 5731 5731 5732 5732 5732 5732 5732 5733 5733
5681 5683 5686 5687 5687 5688 5689 5689 5690 5691 5692 5693 5694 5694 5694 5695 5696 5697 5698 5699 5699 5701 5701 5702 5703 5705 5705 5706 5707 5707 5708 5710 5711 5712 5712 5713 5713 5713 5714 5715 5715 5715 5716 5717 5717 5718 5719 5720 5721 5722 5723 5723 5724 5724 5724 5724 5723 5723 5724 5725 5726 5726 5726 5727 5727 5727 5727 5727 5727 5727 5727 5727 5727 5728 5728 5728 5728 5728 5729 5730 5730 5730 5730 5730 5730 5730
5678 5680 5683 5684 5684 5685 5686 5687 5687 5688 5689 5690 5691 5692 5692 5692 5694 5695 5696 5696 5697 5698 5699 5700 5701 5703 5703 5704 5705 5705 5706 5707 5708 5709 5710 5710 5711 5711 5712 5713 5713 5714 5714 5714 5714 5715 5716 5717 5718 5719 5720 5721 5722 5722 5723 5723 5722 5721 5721 5722 5723 5723 5724 5724 5724 5724 5724 5724 5724 5724 5724 5725 5725 5724 5724 5724 5725 5726 5726 5727 5727 5727 5727 5727 5727 5727
5675 5677 5680 5681 5681 5682 5683 5684 5684 5685 5686 5687 5688 5689 5690 5691 5691 5693 5693 5694 5694 5695 5696 5697 5699 5700 5701 5702 5703 5703 5704 5704 5705 5706 5707 5708 5709 5709 5710 5710 5711 5712 5712 5712 5713 5713 5714 5715 5715 5716 5717 5718 5719 5720 5720 5721 5721 5720 5720 5719 5720 5720 5720 5721 5721 5721 5721 5721 5721 5721 5722 5722 5722 5721 5720 5720 5722 5722 5723 5723 5723 5724 5724 5724 5725 5725
5673 5674 5676 5678 5678 5678 5679 5680 5681 5682 5683 5684 5685 5686 5688 5688 5689 5690 5691 5691 5692 5693 5694 5694 5696 5697 5698 5699 5700 5701 5701 5702 5702 5703 5704 5705 5706 5707 5707 5708 5708 5708 5709 5710 5710 5711 5712 5713 5713 5714 5714 5715 5716 5717 5717 5718 5718 5718 5717 5717 5717 5717 5717 5717 5717 5717 5717 5717 5717 5717 5718 5718 5718 5718 5717 5718 5719 5720 5720 5720 5720 5722 5722 5722 5723 5723
5670 5670 5672 5674 5675 5675 5675 5677 5678 5679 5679 5680 5682 5683 5684 5685 5686 5687 5688 5689 5689 5690 5691 5691 5693 5695 5696 5696 5697 5698 5699 5700 5700 5701 5702 5703 5703 5704 5705 5705 5706 5706 5706 5706 5707 5708 5709 5710 5711 5711 5711 5712 5712 5713 5714 5714 5715 5715 5715 5714 5713 5713 5713 5713 5713 5714 5714 5714 5713 5713 5713 5714 5714 5714 5714 5714 5716 5718 5718 5719 5719 5720 5720 5720 5720 5720
5665 5666 5667 5670 5672 5672 5672 5674 5675 5676 5676 5677 5678 5680 5681 5682 5683 5684 5685 5686 5687 5687 5688 5688 5690 5693 5693 5694 5694 5695 5696 5698 5699 5700 5700 5701 5701 5702 5703 5703 5704 5704 5703 5703 5704 5705 5706 5707 5707 5708 5709 5709 5709 5709 5710 5710 5711 5711 5711 5711 5710 5710 5710 5709 5709 5710 5710 5710 5710 5710 5710 5710 5712 5712 5712 5712 5714 5715 5716 5717 5717 5718 5717 5717 5717 5717
5662 5663 5664 5666 5667 5669 5670 5671 5672 5673 5673 5674 5675 5676 5677 5679 5679 5680 5682 5682 5683 5684 5684 5685 5687 5689 5690 5691 5691 5692 5693 5695 5696 5697 5697 5698 5699 5700 5700 5701 5701 5701 5701 5701 5701 5701 5702 5703 5704 5704 5705 5705 5706 5706 5706 5706 5707 5707 5707 5707 5707 5707 5706 5706 5706 5706 5706 5706 5707 5707 5707 5708 5709 5710 5711 5711 5711 5712 5713 5714 5714 5714 5714 5713 5713 5714
5659 5660 5661 5662 5663 5665 5666 5667 5668 5668 5669 5669 5671 5672 5673 5675 5676 5677 5678 5679 5679 5680 5680 5680 5683 5685 5686 5687 5688 5689 5690 5691 5692 5693 5694 5695 5695 5696 5697 5697 5698 5698 5698 5697 5697 5698 5698 5698 5699 5699 5700 5700 5701 5701 5701 5702 5702 5703 5703 5703 5703 5703 5703 5702 5702 5701 5701 5702 5702 5703 5703 5704 5705 5706 5707 5707 5707 5707 5708 5708 5708 5709 5710 5709 5709 5710
5657 5657 5658 5659 5660 5660 5662 5662 5663 5664 5664 5665 5666 5668 5669 5670 5672 5673 5674 5675 5676 5676 5676 5676 5678 5680 5681 5682 5683 5684 5685 5686 5687 5688 5689 5690 5691 5691 5692 5693 5693 5693 5693 5693 5693 5693 5693 5693 5693 5694 5694 5695 5695 5695 5696 5697 5697 5698 5698 5698 5698 5698 5699 5698 5698 5697 5697 5697 5697 5698 5698 5699 5700 5701 5702 5703 5703 5703 5704 5703 5702 5704 5705 5705 5705 5706
5654 5654 5654 5656 5656 5656 5657 5658 5658 5659 5660 5661 5662 5664 5665 5667 5668 5669 5670 5671 5671 5672 5672 5672 5674 5675 5676 5677 5678 5679 5680 5681 5681 5682 5683 5684 5685 5686 5687 5687 5688 5688 5688 5688 5688 5688 5688 5689 5689 5689 5689 5689 5689 5689 5689 5690 5691 5692 5692 5692 5693 5693 5694 5694 5693 5692 5692 5692 5692 5693 5693 5694 5694 5695 5696 5697 5698 5700 5701 5699 5697 5698 5700 5700 5701 5702
5650 5650 5651 5652 5652 5653 5654 5654 5654 5655 5656 5656 5658 5660 5662 5663 5665 5665 5666 5666 5667 5667 5667 5668 5669 5670 5671 5672 5673 5674 5675 5675 5675 5676 5676 5677 5678 5679 5680 5680 5681 5682 5683 5683 5683 5683 5683 5683 5683 5684 5684 5684 5684 5683 5683 5684 5685 5685 5685 5685 5686 5686 5687 5687 5687 5687 5687 5687 5687 5687 5688 5688 5689 5689 5690 5691 5692 5693 5694 5694 5692 5693 5694 5694 5695 5696
5646 5647 5648 5648 5649 5650 5650 5651 5651 5651 5651 5652 5654 5656 5658 5659 5661 5661 5661 5662 5662 5662 5663 5664 5665 5666 5667 5667 5667 5668 5668 5669 5669 5670 5671 5672 5672 5672 5672 5672 5673 5674 5675 5676 5676 5676 5676 5676 5676 5677 5678 5678 5679 5679 5679 5679 5679 5678 5678 5678 5678 5679 5679 5679 5680 5680 5680 5681 5681 5681 5682 5682 5683 5684 5684 5685 5685 5686 5686 5686 5686 5686 5686 5687 5687 5688
5640 5642 5643 5644 5645 5645 5646 5647 5647 5646 5646 5648 5649 5651 5653 5654 5656 5656 5657 5657 5657 5657 5658 5659 5660 5661 5662 5662 5663 5662 5662 5663 5663 5664 5665 5666 5666 5666 5665 5665 5665 5665 5666 5668 5668 5668 5669 5669 5669 5669 5670 5671 5672 5672 5673 5673 5673 5672 5672 5672 5671 5672 5672 5672 5673 5673 5674 5674 5675 5675 5675 5676 5676 5677 5678 5679 5679 5679 5680 5680 5680 5680 5680 5681 5681 5681
5634 5635 5637 5638 5639 5639 5641 5641 5641 5640 5642 5644 5645 5646 5647 5649 5650 5651 5651 5652 5652 5651 5652 5653 5654 5655 5656 5657 5657 5657 5657 5657 5658 5658 5659 5659 5659 5658 5658 5658 5659 5659 5659 5660 5660 5660 5661 5661 5661 5662 5663 5664 5664 5665 5666 5666 5667 5667 5666 5666 5666 5666 5666 5666 5667 5667 5668 5668 5669 5669 5669 5669 5670 5670 5671 5672 5673 5674 5674 5675 5675 5675 5676 5676 5676 5676
5628 5629 5630 5631 5632 5633 5635 5635 5635 5635 5638 5639 5640 5641 5642 5643 5644 5645 5645 5645 5646 5646 5646 5647 5647 5648 5649 5650 5651 5652 5652 5651 5651 5652 5652 5653 5653 5652 5651 5652 5652 5653 5653 5653 5654 5654 5653 5653 5654 5655 5656 5657 5657 5658 5659 5660 5660 5660 5659 5660 5661 5662 5662 5662 5662 5662 5662 5662 5663 5663 5663 5664 5664 5665 5665 5666 5667 5668 5669 5670 5670 5671 5671 5671 5671 5672
5624 5624 5625 5626 5626 5628 5629 5629 5628 5629 5631 5633 5634 5635 5636 5637 5638 5639 5638 5638 5639 5640 5640 5640 5640 5641 5642 5643 5644 5645 5645 5645 5645 5645 5646 5647 5647 5646 5646 5646 5646 5646 5646 5647 5647 5647 5647 5647 5648 5649 5650 5651 5651 5650 5651 5652 5652 5652 5653 5654 5655 5656 5656 5657 5657 5657 5657 5657 5657 5657 5658 5658 5659 5660 5660 5661 5662 5662 5663 5663 5664 5665 5666 5666 5666 5667
5620 5620 5621 5621 5621 5622 5623 5622 5622 5623 5625 5627 5628 5629 5630 5630 5631 5631 5631 5632 5633 5634 5634 5633 5633 5634 5635 5636 5637 5638 5638 5638 5639 5639 5640 5640 5640 5640 5640 5640 5640 5640 5640 5640 5640 5640 5640 5640 5641 5641 5642 5643 5644 5643 5643 5644 5644 5644 5645 5646 5647 5648 5649 5650 5651 5651 5651 5651 5651 5652 5652 5652 5653 5654 5655 5655 5655 5655 5656 5656 5657 5658 5659 5660 5660 5661
5615 5615 5616 5615 5615 5616 5617 5617 5617 5618 5619 5621 5622 5622 5623 5623 5623 5624 5624 5625 5627 5628 5629 5628 5628 5628 5629 5629 5630 5630 5630 5631 5631 5632 5632 5633 5633 5633 5633 5633 5632 5632 5632 5632 5632 5632 5632 5632 5632 5633 5633 5634 5635 5636 5636 5636 5637 5638 5638 5638 5639 5640 5641 5643 5645 5645 5645 5645 5645 5645 5645 5646 5646 5647 5648 5648 5648 5648 5649 5649 5650 5651 5651 5652 5653 5653
5610 5610 5610 5610 5610 5611 5612 5611 5611 5612 5614 5615 5616 5616 5616 5616 5616 5616 5617 5619 5621 5622 5622 5622 5622 5621 5621 5622 5622 5622 5622 5622 5623 5623 5623 5623 5623 5624 5624 5624 5624 5624 5624 5624 5624 5624 5624 5624 5624 5624 5624 5625 5625 5627 5628 5628 5629 5630 5631 5630 5631 5632 5633 5635 5637 5637 5637 5637 5637 5638 5638 5639 5640 5640 5641 5641 5641 5641 5641 5642 5642 5643 5644 5645 5645 5646
5604 5605 5605 5604 5605 5605 5606 5605 5605 5606 5609 5610 5610 5609 5610 5610 5609 5609 5611 5613 5614 5614 5614 5615 5614 5614 5614 5614 5615 5615 5614 5614 5614 5614 5614 5614 5614 5614 5614 5614 5614 5615 5615 5616 5616 5616 5616 5616 5616 5616 5616 5617 5617 5618 5619 5620 5620 5622 5623 5623 5623 5624 5625 5627 5627 5628 5629 5629 5629 5630 5631 5632 5633 5634 5634 5635 5635 5635 5635 5635 5635 5635 5636 5637 5637 5638
5598 5599 5599 5599 5600 5600 5600 5600 5600 5601 5603 5605 5604 5604 5604 5604 5603 5603 5605 5606 5606 5606 5607 5607 5607 5607 5607 5607 5608 5608 5608 5607 5607 5607 5607 5606 5606 5606 5606 5606 5606 5606 5605 5606 5607 5608 5609 5609 5609 5609 5609 5610 5610 5610 5611 5612 5612 5613 5614 5615 5616 5616 5617 5618 5618 5619 5620 5621 5621 5621 5622 5623 5625 5626 5627 5627 5628 5628 5627 5628 5628 5629 5629 5629 5629 5630
5592 5593 5594 5594 5594 5595 5595 5595 5595 5596 5598 5599 5598 5599 5600 5599 5598 5599 5600 5599 5599 5599 5600 5600 5600 5600 5600 5600 5601 5601 5601 5601 5600 5600 5600 5600 5599 5599 5599 5599 5599 5598 5598 5598 5599 5600 5601 5601 5602 5602 5602 5602 5602 5602 5603 5603 5603 5604 5605 5606 5607 5608 5608 5609 5610 5611 5612 5612 5613 5614 5614 5615 5616 5617 5618 5619 5619 5620 5620 5620 5621 5621 5622 5622 5622 5622
5586 5587 5588 5588 5589 5589 5590 5590 5591 5592 5593 5593 5593 5594 5594 5594 5594 5595 5595 5594 5593 5593 5593 5593 5593 5593 5593 5593 5593 5593 5593 5593 5593 5593 5593 5593 5592 5592 5592 5592 5591 5591 5591 5591 5591 5591 5592 5592 5593 5593 5594 5594 5594 5594 5594 5595 5595 5595 5595 5596 5597 5598 5599 5600 5601 5602 5603 5604 5605 5606 5606 5606 5607 5608 5609 5609 5610 5611 5612 5612 5613 5613 5613 5614 5615 5615
5581 5582 5582 5583 5584 5585 5585 5586 5587 5588 5589 5589 5588 5589 5589 5589 5590 5589 5589 5589 5588 5587 5586 5586 5585 5585 5585 5585 5585 5585 5584 5584 5584 5584 5584 5584 5584 5584 5584 5584 5584 5584 5584 5584 5584 5583 5583 5583 5583 5583 5584 5585 5585 5585 5585 5585 5586 5586 5586 5586 5587 5589 5590 5590 5591 5592 5593 5594 5595 5596 5597 5598 5599 5599 5599 5600 5600 5602 5602 5603 5604 5604 5605 5606 5607 5608
5576 5577 5577 5578 5578 5579 5580 5581 5582 5583 5583 5584 5584 5583 5583 5583 5583 5582 5582 5582 5581 5580 5580 5579 5579 5578 5578 5578 5577 5577 5576 5576 5576 5576 5575 5575 5575 5575 5574 5575 5575 5574 5574 5575 5575 5574 5574 5574 5573 5574 5574 5575 5575 5575 5575 5576 5576 5576 5577 5577 5578 5579 5580 5581 5581 5582 5583 5584 5585 5586 5587 5589 5590 5590 5591 5591 5592 5592 5593 5593 5594 5595 5596 5598 5599 5600
5571 5572 5572 5573 5573 5573 5574 5575 5575 5576 5577 5577 5577 5577 5577 5576 5576 5575 5575 5575 5574 5574 5573 5573 5572 5572 5571 5570 5570 5569 5568 5568 5568 5567 5567 5566 5566 5565 5564 5564 5564 5564 5564 5564 5564 5565 5565 5565 5564 5564 5565 5565 5565 5565 5565 5566 5566 5566 5567 5567 5568 5569 5569 5570 5571 5572 5573 5574 5575 5576 5577 5578 5580 5581 5582 5583 5584 5584 5584 5584 5585 5586 5587 5589 5591 5592
5567 5567 5568 5568 5568 5569 5569 5569 5569 5570 5570 5571 5571 5571 5571 5570 5569 5569 5568 5568 5568 5567 5567 5566 5565 5565 5564 5563 5562 5561 5560 5559 5559 5559 5558 5558 5557 5556 5556 5555 5555 5555 5555 5554 5554 5555 5555 5555 5555 5555 5556 5556 5556 5556 5556 5556 5556 5556 5556 5557 5557 5558 5559 5559 5560 5562 5563 5564 5565 5566 5567 5567 5569 5571 5572 5574 5576 5577 5577 5576 5576 5577 5579 5581 5582 5584
5563 5564 5564 5564 5564 5564 5564 5563 5564 5564 5564 5565 5565 5565 5564 5564 5563 5562 5562 5561 5561 5560 5559 5559 5558 5557 5556 5555 5554 5553 5552 5551 5550 5550 5550 5550 5549 5548 5547 5547 5546 5546 5546 5545 5545 5545 5545 5545 5545 5546 5546 5546 5546 5546 5547 5547 5547 5546 5546 5546 5547 5547 5548 5549 5550 5551 5553 5554 5555 5556 5557 5558 5559 5561 5562 5564 5567 5568 5569 5569 5570 5570 5572 5573 5574 5575
5561 5560 5561 5560 5560 5560 5559 5559 5559 5559 5559 5559 5559 5558 5558 5557 5557 5556 5555 5555 5554 5554 5553 5551 5550 5549 5548 5547 5546 5545 5544 5543 5542 5542 5541 5541 5540 5539 5538 5538 5537 5537 5536 5536 5535 5535 5535 5535 5535 5536 5536 5536 5537 5537 5538 5538 5538 5537 5537 5537 5537 5537 5538 5539 5540 5542 5543 5545 5546 5547 5548 5549 5551 5552 5552 5554 5556 5558 5559 5561 5562 5564 5565 5566 5567 5568
5558 5557 5557 5557 5556 5556 5555 5554 5554 5554 5554 5553 5553 5552 5552 5551 5551 5550 5550 5549 5548 5547 5546 5545 5543 5542 5541 5539 5538 5536 5535 5535 5534 5533 5532 5531 5530 5530 5529 5528 5527 5527 5526 5525 5525 5525 5524 5524 5525 5526 5526 5527 5527 5527 5528 5528 5529 5528 5528 5528 5528 5529 5530 5531 5532 5534 5535 5536 5537 5538 5539 5540 5542 5543 5543 5545 5547 5548 5549 5552 5554 5556 5558 5559 5560 5560